Observations for Trim Market St
| Time | AQI | Temp °C | Hum % | Pres Pa | CO μg/m³ | H₂S μg/m³ | NO μg/m³ | NO₂ μg/m³ | O₃ μg/m³ | SO₂ μg/m³ | PM1 μg/m³ | PM2.5 μg/m³ | PM10 μg/m³ |
|---|---|---|---|---|---|---|---|---|---|---|---|---|---|
| Wednesday 15 July 2026 | |||||||||||||
| 07:06 | 1 | 19.9 | 75 | 31,308 | 0.29 | 0 | 0 | 5.95 | 7.67 | 0 | 11.4 | 13.82 | 20.04 |
| 07:05 | 1 | 19.8 | 75 | 29,329 | 0.29 | 0 | 0 | 4.75 | 13.18 | 0 | 8.55 | 13.8 | 20.61 |
| 07:04 | 1 | 19.7 | 76 | 27,364 | 0.29 | 0 | 0.32 | 4.65 | 9.83 | 0 | 9.26 | 12.35 | 18.81 |
| 07:03 | 1 | 19.7 | 76 | 25,473 | 0.31 | 0 | 1.64 | 6.64 | 8.01 | 0 | 10.69 | 15.21 | 23.54 |
| 07:02 | 1 | 19.6 | 76 | 23,614 | 0.29 | 0 | 0.27 | 7.95 | 8.04 | 0 | 9.26 | 14.72 | 20.55 |
| 07:01 | 1 | 19.5 | 76 | 22,046 | 0.29 | 0 | 0.9 | 7.85 | 5.01 | 0 | 9.98 | 11.84 | 16.98 |
| 07:00 | 1 | 19.5 | 76 | 20,455 | 0.27 | 0 | 0 | 5.23 | 8.24 | 0 | 9.26 | 12.78 | 18.14 |
| 06:58 | 1 | 19.3 | 77 | 16,618 | 0.29 | 0 | 0 | 6.45 | 8.15 | 0 | 9.26 | 13.23 | 19.28 |
| 06:50 | 1 | 18.9 | 78 | 2,668 | 0.26 | 0 | 0 | 5.84 | 13.73 | 0 | 9.98 | 12.2 | 19.75 |
| 06:46 | 1 | 18.7 | 78 | 2,147,483,647 | 0.26 | 0 | 0 | 5.24 | 14.3 | 0 | 9.26 | 12.16 | 19.1 |
| 06:44 | 1 | 18.6 | 78 | 2,147,483,647 | 0.24 | 0 | 0 | 5.34 | 14.65 | 0 | 9.98 | 14.52 | 21.97 |
| 06:42 | 1 | 18.5 | 78 | 2,147,483,647 | 0.23 | 0 | 0 | 5.05 | 12.21 | 0 | 9.98 | 13.08 | 18.48 |
| 06:38 | 1 | 18.2 | 79 | 2,147,483,647 | 0.24 | 0 | 0 | 6.1 | 11.94 | 0 | 9.98 | 14.01 | 19.61 |
| 06:37 | 1 | 18.2 | 79 | 2,147,483,647 | 0.23 | 0 | 0 | 5.29 | 12.67 | 0 | 8.55 | 11.16 | 16.72 |
| 06:36 | 1 | 18.1 | 79 | 2,147,483,647 | 0.22 | 0 | 0 | 6.52 | 13.19 | 0 | 9.98 | 14 | 19.02 |
| 06:35 | 1 | 18.1 | 79 | 2,147,483,647 | 0.24 | 0 | 0 | 5.51 | 12.04 | 0 | 9.98 | 14.94 | 24.18 |
| 06:34 | 1 | 18.1 | 79 | 2,147,483,647 | 0.23 | 0 | 0 | 3.81 | 14.42 | 0 | 7.84 | 11.63 | 16.14 |
| 06:33 | 1 | 18.1 | 79 | 2,147,483,647 | 0.22 | 0 | 0 | 6 | 16.5 | 0 | 10.69 | 14.46 | 21.29 |
| 06:32 | 1 | 18 | 79 | 2,147,483,647 | 0.24 | 0 | 0 | 5.32 | 14.84 | 0 | 7.13 | 12.09 | 17.85 |
| 06:31 | 1 | 18 | 79 | 2,147,483,647 | 0.22 | 0 | 0.31 | 5.11 | 15.41 | 0 | 9.98 | 13.98 | 20.13 |